Flight Track Log - Related Links

Times and Time Zones

All times are in EDT time to prevent confusion due to time zone crossing. See the LXJ549 flight status page for this flight to view local times or setup timezone preferences in your user account.

Time Position Orientation Groundspeed Altitude Reporting Facility
EDT Latitude Longitude Course Direction KTS MPH feet Rate Location/Type
08:56PM 43.5842 -110.7497 206° Southwest 153 176 7,500  Level Salt Lake Center
08:57PM 43.5292 -110.7867 206° Southwest 219 252 10,300 2,878 Climbing Salt Lake Center
08:58PM 43.4603 -110.8331 206° Southwest 261 300 13,400 3,073 Climbing Salt Lake Center
08:59PM 43.4386 -110.9414 255° West 320 368 16,600 3,000 Climbing Salt Lake Center
09:00PM 43.4628 -111.0994 282° West 360 414 19,600 2,732 Climbing Salt Lake Center
09:01PM 43.5067 -111.2356 294° West 386 444 22,200 2,439 Climbing Salt Lake Center
09:02PM 43.5508 -111.3697 294° West 397 457 24,600 2,293 Climbing Salt Lake Center
09:03PM 43.5961 -111.5075 294° West 408 470 26,900 2,390 Climbing Salt Lake Center
09:04PM 43.6500 -111.6736 294° West 421 484 29,500 2,341 Climbing Salt Lake Center
09:05PM 43.6961 -111.8161 294° West 423 487 31,700 2,341 Climbing Salt Lake Center
09:06PM 43.7503 -111.9811 294° West 420 483 34,300 2,439 Climbing Salt Lake Center
09:07PM 43.7936 -112.1172 294° West 407 468 36,700 1,951 Climbing Salt Lake Center
09:08PM 43.8344 -112.2478 293° West 390 449 38,300 1,268 Climbing Salt Lake Center
09:09PM 43.8836 -112.4061 293° West 399 459 39,300 976 Climbing Salt Lake Center
09:10PM 43.9275 -112.5461 294° West 409 471 40,300 1,073 Climbing Salt Lake Center
09:11PM 43.9792 -112.7097 294° West 414 476 41,500 1,073 Climbing Salt Lake Center
09:12PM 44.0225 -112.8508 293° West 414 476 42,500 732 Climbing Salt Lake Center
09:13PM 44.0664 -112.9903 294° West 410 472 43,000 244 Climbing Salt Lake Center
09:14PM 44.1172 -113.1533 294° West 411 473 43,000  Level Salt Lake Center
09:15PM 44.1597 -113.2914 293° West 407 468 43,000  Level Salt Lake Center
09:16PM 44.2078 -113.4522 293° West 404 465 43,000  Level Salt Lake Center
09:17PM 44.2494 -113.5922 293° West 406 467 43,000  Level Salt Lake Center
09:18PM 44.2931 -113.7342 293° West 414 476 43,000  Level Salt Lake Center
09:19PM 44.3433 -113.9017 293° West 419 482 43,000  Level Salt Lake Center
09:20PM 44.3864 -114.0519 292° West 415 478 43,000  Level Salt Lake Center
09:21PM 44.4294 -114.1942 293° West 416 479 43,000  Level Salt Lake Center
09:22PM 44.4786 -114.3614 292° West 416 479 43,000  Level Salt Lake Center
09:23PM 44.5217 -114.5042 293° West 416 479 43,000  Level Salt Lake Center
09:24PM 44.5625 -114.6456 292° West 411 473 43,000  Level Salt Lake Center
09:25PM 44.6106 -114.8114 292° West 413 475 43,000  Level Salt Lake Center
09:26PM 44.6522 -114.9531 293° West 412 474 43,000  Level Salt Lake Center
09:27PM 44.6986 -115.1189 292° West 411 473 43,000  Level Salt Lake Center
09:28PM 44.7386 -115.2617 292° West 411 473 43,000  Level Salt Lake Center
09:29PM 44.7864 -115.4281 292° West 412 474 43,000  Level Salt Lake Center
09:30PM 44.8328 -115.5686 295° West 416 479 43,000  Level Salt Lake Center
09:32PM 44.8864 -115.7042 299° West 416 479 43,000  Level Salt Lake Center
09:33PM 44.9483 -115.8633 299° West 417 480 43,000  Level Salt Lake Center
09:34PM 45.0006 -116.0017 298° West 419 482 43,000  Level Salt Lake Center
09:35PM 45.0614 -116.1608 298° West 415 478 43,000  Level Salt Lake Center
09:36PM 45.1144 -116.2989 299° West 417 480 43,000  Level Salt Lake Center
09:37PM 45.1739 -116.4586 298° West 414 476 43,000  Level Salt Lake Center
09:38PM 45.2264 -116.5969 298° West 417 480 43,000  Level Salt Lake Center
09:39PM 45.2786 -116.7372 298° West 419 482 43,000  Level Salt Lake Center
09:40PM 45.3392 -116.8997 298° West 418 481 43,000  Level Salt Lake Center
09:41PM 45.3908 -117.0381 298° West 414 476 43,000  Level Salt Lake Center
09:42PM 45.4500 -117.1975 298° West 411 473 43,000  Level Salt Lake Center
09:43PM 45.5164 -117.3822 297° West 409 471 43,000  Level Seattle Center
09:44PM 45.5644 -117.5156 297° West 411 473 43,000  Level Seattle Center
09:45PM 45.6169 -117.6581 298° West 408 470 43,000  Level Seattle Center
09:46PM 45.6678 -117.8019 297° West 407 468 43,000  Level Seattle Center
09:47PM 45.7236 -117.9589 297° West 411 473 43,000  Level Seattle Center
09:48PM 45.7758 -118.1064 297° West 415 478 43,000 -49 Level Seattle Center
09:49PM 45.8275 -118.2514 297° West 412 474 42,900  Descending Seattle Center
09:50PM 45.8797 -118.4003 297° West 416 479 43,000 49 Climbing Seattle Center
09:51PM 45.9378 -118.5644 297° West 418 481 43,000  Level Seattle Center
09:52PM 45.9886 -118.7122 296° West 417 480 43,000  Level Seattle Center
09:53PM 46.0406 -118.8603 297° West 417 480 43,000  Level Seattle Center
09:54PM 46.0911 -119.0081 296° West 415 478 43,000  Level Seattle Center
09:55PM 46.1411 -119.1569 296° West 415 478 43,000  Level Seattle Center
09:56PM 46.1917 -119.3047 296° West 415 478 43,000  Level Seattle Center
09:57PM 46.2428 -119.4542 296° West 416 479 43,000  Level Seattle Center
09:58PM 46.2922 -119.6014 296° West 412 474 43,000 -149 Level Seattle Center
09:59PM 46.3414 -119.7508 296° West 414 476 42,700 -1,426 Descending Seattle Center
10:00PM 46.3914 -119.9028 296° West 419 482 40,100 -2,557 Descending Seattle Center
10:01PM 46.4425 -120.0556 296° West 422 486 37,500 -2,852 Descending Seattle Center
10:02PM 46.5033 -120.2400 296° West 426 490 34,300 -2,852 Descending Seattle Center
10:03PM 46.5528 -120.3969 295° West 429 494 31,700 -2,656 Descending Seattle Center
10:04PM 46.6206 -120.5503 303° West 451 519 28,900 -2,754 Descending Seattle Center
10:05PM 46.6908 -120.7003 304° West 450 518 26,100 -2,607 Descending Seattle Center
10:06PM 46.7558 -120.8378 305° West 419 482 23,600 -2,508 Descending Seattle Center
10:07PM 46.8208 -120.9725 305° West 410 472 21,000 -2,459 Descending Seattle Center
10:08PM 46.8822 -121.1033 305° West 395 455 18,600 -2,262 Descending Seattle Center
10:09PM 46.9383 -121.2225 305° West 361 415 16,400 -2,276 Descending Seattle Center
10:10PM 46.9908 -121.3292 306° West 320 368 14,200 -2,066 Descending Seattle Center
10:11PM 47.0478 -121.4528 304° West 316 364 12,200 -1,500 Descending Seattle Center
10:12PM 47.0911 -121.5511 303° West 291 335 11,000 -738 Descending Seattle Center
10:13PM 47.1386 -121.6522 305° West 304 350 10,700 -934 Descending Seattle Center
10:15PM 47.1858 -121.7592 303° West 293 337 9,100 -1,574 Descending Seattle Center
10:16PM 47.2297 -121.8631 302° West 296 341 7,500 -1,426 Descending Seattle Center
10:17PM 47.2711 -121.9572 303° West 278 320 6,200 -1,426 Descending Seattle Center
10:18PM 47.3092 -122.0508 301° West 269 310 4,600 -1,173 Descending Seattle Center
10:19PM 47.3547 -122.1517 304° West 218 251 3,600 -1,131 Descending Seattle Center
10:20PM 47.3981 -122.1906 329° Northwest 217 250 2,300 -865 Descending Seattle Center
10:21PM 47.4333 -122.2219 329° Northwest 141 162 2,000 -496 Descending Seattle Center
10:22PM 47.4639 -122.2486 329° Northwest 129 148 1,300 -645 Descending Seattle Center
10:23PM 47.4925 -122.2719 331° Northwest 121 139 700 -541 Descending Seattle Center
10:24PM 47.5214 -122.2950 332° Northwest 115 132 200 -492 Descending Seattle Center
10:26PM 47.5167 -122.3000 326° Northwest  Level FlightAware Approximate

Login

Don't have an account? Register now (free) for customized features, flight alerts, and more!